{"data":{"norad_id":35500,"intl_designator":"2009-036C","name":"COSMOS 2453","alt_names":[],"object_type":"PAYLOAD","status":"ACTIVE","operator":null,"country":"CIS","launch_date":"2009-07-06","launch_site_code":"PLMSC","launch_vehicle":null,"mission":null,"orbit_class":"UNKNOWN","rcs_meters":0.8179,"size_class":null,"mass_kg":null,"dimensions":null,"purposes":[],"wikipedia_slug":null,"has_3d_model":false,"image_url":null,"decayed_at":null,"tle_current":{"epoch":"2026-09-20T03:47:36.390912Z","epoch_age_seconds":51558,"freshness":"FRESH","line1":"1 35500U 09036C   26263.15806008  .00000045  00000+0  26000-3 0  9997","line2":"2 35500  82.4915  28.8844 0006242 326.0316  34.0362 12.41521648779761","mean_motion":12.41521648,"eccentricity":0.0006242,"inclination_deg":82.4915,"raan_deg":28.8844,"arg_perigee_deg":326.0316,"mean_anomaly_deg":34.0362,"bstar":0.00026,"rev_number":77976,"period_min":115.98670086178,"perigee_km":1495.2416639564,"apogee_km":1505.076929053,"semimajor_km":7878.2962965047,"source":"CELESTRAK","updated_at":"2026-09-20T09:00:13.706670Z"}}}